Lake Louise, Canada 16 day weather forecast

Slopes altitude range 1630 m - 2730m

Number of lifts: 26 Pistes: 100km

In some cases the lift and piste totals shown are for the ski domain (e.g. Three Valleys) rather than individual resort (e.g. Courchevel)

Overview

The 16 day weather forecast is fully updated 4 times every day.

    • Wed 26 JUN 2019
    • Wed 26
    • 2C 4C
    • Thu 27 JUN 2019
    • Thu 27
    • 3C 5C
    • Fri 28 JUN 2019
    • Fri 28
    • 2C 4C
    • Sat 29 JUN 2019
    • Sat 29
    • 0C 2C
    • Sun 30 JUN 2019
    • Sun 30
    • 0C 1C
    • Mon 01 JUL 2019
    • Mon 01
    • 2C 3C
    • Tue 02 JUL 2019
    • Tue 02
    • 5C 7C
    • Wed 03 JUL 2019
    • Wed 03
    • 5C 5C
    • Thu 04 JUL 2019
    • Thu 04
    • 0C 1C
    • Fri 05 JUL 2019
    • Fri 05
    • 4C 6C
    • Sat 06 JUL 2019
    • Sat 06
    • 4C 6C
    • Sun 07 JUL 2019
    • Sun 07
    • 4C 6C
    • Mon 08 JUL 2019
    • Mon 08
    • 8C 9C
    • Tue 09 JUL 2019
    • Tue 09
    • 9C 12C
    • Wed 10 JUL 2019
    • Wed 10
    • 8C 10C
    • Thu 11 JUL 2019
    • Thu 11
    • 6C 9C

Date:

Time Type 0°C level Temp Chill Snow Cloud Speed Gust Dir Press
3:00 3087m 6°C 6_3 0cm 100% 3mph 4mph 1010mB
6:00 2779m 4°C 4_4 0cm 100% 4mph 4mph 1012mB
9:00 2717m 3°C 3_2 0cm 100% 2mph 3mph 1013mB
12:00 2613m 4°C 4_3 0cm 100% 3mph 3mph 1014mB
15:00 2655m 4°C 4_3 0cm 100% 3mph 3mph 1014mB
18:00 2942m 9°C 9_1 0cm 72% 1mph 3mph 1013mB
21:00 3140m 9°C 9_5 0cm 99% 5mph 6mph 1011mB
0:00 3320m 9°C 9_3 0cm 56% 3mph 7mph 1010mB
3:00 3335m 10°C 10_2 0cm 83% 2mph 2mph 1011mB
6:00 3324m 5°C 5_4 0cm 91% 4mph 5mph 1013mB
9:00 3296m 4°C 4_5 0cm 99% 5mph 5mph 1014mB
12:00 3230m 5°C 5_6 0cm 100% 6mph 6mph 1014mB
15:00 3120m 7°C 7_4 0cm 98% 4mph 5mph 1014mB
18:00 3225m 9°C 9_6 0cm 99% 6mph 7mph 1013mB
21:00 3301m 8°C 8_4 0cm 100% 4mph 5mph 1013mB
0:00 3400m 8°C 8_7 0cm 100% 7mph 9mph 1011mB
3:00 3253m 8°C 8_5 0cm 15% 5mph 7mph 1011mB
6:00 3232m 3°C 3_0 0cm 11% 0mph 0mph 1012mB
9:00 3062m 3°C 3_3 0cm 71% 3mph 4mph 1012mB
12:00 2989m 4°C 4_2 0cm 85% 2mph 3mph 1012mB
15:00 2869m 6°C 6_6 0cm 100% 6mph 9mph 1011mB
18:00 2961m 8°C 8_8 0cm 100% 8mph 12mph 1010mB
21:00 3065m 8°C 8_11 0cm 92% 11mph 18mph 1010mB
0:00 3150m 8°C 8_14 0cm 63% 14mph 22mph 1010mB
3:00 3073m 7°C 7_5 0cm 45% 5mph 7mph 1011mB
6:00 3012m 2°C 2_2 0cm 23% 2mph 3mph 1014mB
9:00 2949m 1°C 1_0 0cm 66% 0mph 0mph 1015mB
12:00 2859m 2°C 2_4 2cm 54% 4mph 5mph 1016mB
15:00 2479m 3°C 3_5 2cm 96% 5mph 6mph 1016mB
18:00 2462m 3°C 3_5 2cm 98% 5mph 5mph 1015mB
21:00 2754m 3°C 3_7 0cm 100% 7mph 13mph 1015mB
0:00 2911m 3°C 3_5 0cm 100% 5mph 8mph 1015mB
3:00 2932m 5°C 5_3 0cm 100% 3mph 3mph 1017mB
6:00 2919m 1°C 1_3 0cm 84% 3mph 3mph 1020mB
9:00 2930m 0°C 0_1 0cm 34% 1mph 2mph 1020mB
12:00 2915m 1°C 1_1 0cm 39% 1mph 1mph 1021mB
15:00 2879m 6°C 6_2 0cm 100% 2mph 1mph 1020mB
18:00 2971m 8°C 8_6 0cm 100% 6mph 5mph 1019mB
21:00 3267m 8°C 8_2 0cm 67% 2mph 3mph 1017mB
0:00 3272m 8°C 8_3 0cm 83% 3mph 5mph 1017mB
3:00 3310m 9°C 9_1 0cm 33% 1mph 2mph 1017mB
6:00 3342m 4°C 4_2 0cm 44% 2mph 2mph 1019mB
9:00 3381m 2°C 2_1 0cm 0% 1mph 2mph 1019mB
12:00 3384m 3°C 3_1 0cm 0% 1mph 1mph 1019mB
15:00 3402m 10°C 10_1 0cm 0% 1mph 2mph 1017mB
18:00 3518m 15°C 15_1 0cm 0% 1mph 3mph 1016mB
21:00 3632m 14°C 14_3 0cm 61% 3mph 3mph 1013mB
0:00 3589m 14°C 14_3 0cm 81% 3mph 3mph 1012mB
3:00 3675m 12°C 12_3 0cm 72% 3mph 3mph 1012mB
6:00 3642m 7°C 7_3 0cm 78% 3mph 3mph 1014mB
9:00 3611m 6°C 6_2 0cm 91% 2mph 2mph 1013mB
12:00 3591m 7°C 7_2 0cm 94% 2mph 2mph 1012mB
15:00 3543m 12°C 12_2 0cm 100% 2mph 2mph 1010mB
18:00 3631m 15°C 15_4 0cm 100% 4mph 5mph 1008mB
21:00 3708m 15°C 15_4 0cm 100% 4mph 5mph 1005mB
0:00 3801m 14°C 14_3 0cm 90% 3mph 4mph 1005mB
3:00 3638m 6°C 6_7 0cm 100% 7mph 8mph 1008mB
6:00 3131m 4°C 4_3 0cm 100% 3mph 3mph 1011mB
9:00 3222m 5°C 5_5 0cm 100% 5mph 5mph 1012mB
12:00 3040m 5°C 5_4 0cm 100% 4mph 4mph 1013mB
15:00 2356m 3°C 3_4 3cm 100% 4mph 5mph 1015mB
18:00 2230m 3°C 3_2 3cm 100% 2mph 2mph 1016mB
21:00 2372m 2°C 2_2 1cm 100% 2mph 3mph 1016mB
0:00 2519m 2°C 2_2 0cm 100% 2mph 2mph 1016mB
3:00 2634m 5°C 5_2 0cm 100% 2mph 2mph 1016mB
6:00 2642m 2°C 2_1 0cm 100% 1mph 2mph 1017mB
9:00 2328m 0°C 0_1 0cm 53% 1mph 1mph 1017mB
12:00 2317m 1°C 1_1 0cm 58% 1mph 1mph 1018mB
15:00 2532m 6°C 6_2 0cm 93% 2mph 2mph 1017mB
18:00 2771m 8°C 8_4 0cm 97% 4mph 4mph 1016mB
21:00 2927m 8°C 8_4 0cm 100% 4mph 5mph 1015mB
0:00 3094m 7°C 7_3 0cm 99% 3mph 4mph 1013mB
3:00 3182m 8°C 8_3 0cm 100% 3mph 4mph 1013mB
6:00 3490m 5°C 5_5 0cm 100% 5mph 5mph 1014mB
9:00 3402m 4°C 4_3 0cm 92% 3mph 4mph 1014mB
12:00 3595m 6°C 6_4 0cm 93% 4mph 4mph 1014mB
15:00 3437m 11°C 11_3 0cm 85% 3mph 5mph 1013mB
18:00 3388m 14°C 14_1 0cm 77% 1mph 5mph 1012mB
21:00 3601m 14°C 14_1 0cm 45% 1mph 8mph 1012mB
0:00 3563m 11°C 11_9 0cm 73% 9mph 11mph 1013mB
Afternoon 0.0208333mm 0 3215m 6°C 6_1 0cm 100% 1mph 1mph 1019mB
Morning 0.5625mm 1.6875 3495m 9°C 9_5 0cm 97% 5mph 5mph 1016mB
Afternoon 0mm 0 3331m 6°C 6_2 0cm 11% 2mph 2mph 1019mB
Morning 0.583333mm 1.75 3783m 14°C 14_5 0cm 91% 5mph 4mph 1015mB
Afternoon 0.0208333mm 0 3796m 9°C 9_4 0cm 98% 4mph 4mph 1015mB
Morning 0.229167mm 0.75 4185m 19°C 19_4 0cm 99% 4mph 14mph 1008mB
Afternoon 0mm 0 4329m 12°C 12_6 0cm 100% 6mph 6mph 1008mB
Morning 0mm 0 3895m 18°C 18_14 0cm 34% 14mph 20mph 1005mB
Afternoon 0mm 0 3540m 10°C 10_6 0cm 12% 6mph 6mph 1010mB
Morning 0mm 0 3721m 17°C 17_12 0cm 11% 12mph 18mph 1006mB
Afternoon 0.0208333mm 0.0625 3190m 9°C 9_5 0cm 3% 5mph 6mph 1012mB
Morning 0mm 0 3480m 15°C 15_13 0cm 8% 13mph 15mph 1010mB

16 day outlook at a glance

Forecast issued: 6/26/2019 7:48:40 AM

Chat

Your comments and questions. In a resort? Let us know what it's like!


Characters left 250

For terms and conditions see Readers Comments on the Cookie and privacy policy page.